Location: Arrien
(42.8963°N, 1.0429°E)
Time: 10:04:41
(UTC+00:00)

SL-16 R/B - Pass Details

Date: 19 March 2026
Orbit: 841 x 845 km, 71.0° (Epoch: 19 April)

Event Time Altitude Azimuth Distance (km) Brightness Sun altitude
Exits shadow 00:56:06 11° 2° (N) 2,405 5.1 -46.1°
Drops below altitude 10° 00:56:23 10° 4° (N) 2,490 5.2 -46.1°
Sets 00:59:14 0° 17° (NNE) 3,412 6.1 -45.9°
